Location: Bridalveil Moraine
(37.7171°N, 119.6568°W)
Time: 23:39:55
(UTC+00:00)

Tiangong - Pass Details

Date: 28 January 2026
Orbit: 386 x 392 km, 41.5° (Epoch: 10 February)

Event Time Altitude Azimuth Distance (km) Brightness Sun altitude
Exits shadow 14:08:25 19° 276° (W) 1,008 -0.7 -11.6°
Maximum altitude 14:10:27 50° 206° (SSW) 510 -1.6 -11.2°
Drops below altitude 10° 14:13:35 10° 130° (SE) 1,426 1.9 -10.6°
Sets 14:15:42 0° 124° (SE) 2,280 3.3 -10.2°
